Wind_Speed
5 5 6 6 5 6 7 7 7 7 7 8 9 9 9 10 11 12 12 13 14 15 15 17 17 17 16 17 18 19 19 19 20 21 22 22 23 24
5 6 7 7 7 7 7 7 7 8 8 9 10 10 11 11 12 13 13 14 14 15 16 17 18 18 19 19 20 21 21 21 22 23 23 24 25 25
6 7 7 8 8 8 8 8 9 9 10 11 11 11 12 13 13 13 14 14 14 15 17 18 19 20 20 21 21 22 22 23 24 24 25 25 26 27
8 7 8 8 8 9 9 10 10 11 11 11 12 12 13 14 14 14 15 15 15 16 18 18 19 20 21 22 23 23 24 24 25 25 26 27 28 29
8 9 9 9 9 10 11 11 12 12 12 12 13 13 14 15 15 16 16 16 17 17 18 19 20 21 22 23 23 24 24 25 26 26 27 29 30 31
10 10 10 10 11 11 12 13 13 14 14 14 14 15 16 16 16 16 16 17 18 19 20 21 21 22 23 24 24 24 25 26 27 28 29 29 30 31
11 12 12 13 13 14 14 14 14 15 15 15 16 17 17 18 18 18 19 19 19 20 21 21 22 23 24 24 25 25 26 27 28 29 29 31 32 33
13 14 14 15 15 15 15 15 16 16 17 17 17 18 18 19 19 20 21 21 21 22 23 24 24 25 25 26 26 27 28 28 29 30 31 33 34 35
15 15 15 15 15 15 16 17 17 17 17 17 18 19 19 20 20 21 21 22 23 24 25 25 26 27 27 28 28 29 30 31 31 32 33 34 35 36
15 15 15 15 16 16 17 17 17 16 17 18 19 19 20 21 21 21 22 23 24 24 25 26 27 28 28 29 29 30 32 33 33 34 34 35 37 37
15 16 16 17 17 18 18 18 18 18 19 20 20 20 21 21 22 22 22 23 24 25 26 27 27 28 29 30 31 32 33 34 34 35 36 37 37 38
17 17 17 18 18 19 19 19 19 20 21 21 22 22 22 22 22 23 24 25 26 26 27 28 28 29 30 31 32 33 34 34 35 36 37 37 38 38
18 19 19 20 20 20 21 21 21 21 22 22 23 23 23 24 24 24 25 26 26 28 28 29 30 31 32 32 33 33 34 35 36 36 37 38 38 39
21 21 21 21 21 21 22 22 22 23 23 23 23 24 24 25 25 25 25 26 28 29 30 31 32 32 33 33 34 34 34 35 36 37 38 38 39 39
21 21 21 22 22 23 23 23 24 24 24 24 24 24 25 25 25 25 27 29 30 31 31 32 32 33 34 34 35 35 36 36 36 37 38 38 39 39
22 22 23 23 23 23 24 24 25 25 25 26 26 26 26 27 27 28 29 30 31 32 32 33 33 34 34 35 36 36 36 37 37 38 38 38 38 39
23 23 23 24 24 24 25 25 25 26 27 27 28 28 28 28 29 30 30 31 32 32 33 33 34 34 35 36 36 36 37 38 38 38 38 38 38 38
25 25 25 25 26 26 26 26 26 27 28 28 29 29 30 30 30 31 32 32 33 33 34 34 35 35 36 36 37 37 37 38 38 37 38 38 38 39
26 26 26 26 27 27 27 27 28 28 29 30 30 31 31 31 32 32 33 34 34 35 35 36 36 36 37 37 37 37 37 37 37 37 37 38 38 39
26 27 27 27 27 28 28 28 29 29 30 31 31 31 32 32 33 33 34 34 35 36 36 36 36 37 37 37 37 37 37 36 36 37 37 38 38 38
28 28 28 28 29 29 30 30 30 31 31 32 32 33 33 33 33 34 34 35 35 35 36 36 37 37 37 37 37 36 36 36 36 37 37 37 37 36
29 29 29 29 30 30 30 31 31 32 33 33 34 34 34 34 34 34 34 34 35 35 36 36 37 36 36 37 37 36 36 36 37 38 37 37 36 35
30 30 30 30 31 31 32 32 32 33 34 34 34 34 34 34 34 34 35 35 35 36 36 37 36 36 36 36 36 35 36 36 36 36 35 35 35 35
Wind_Direction
291 288 288 290 291 290 283 282 281 281 284 286 286 286 286 283 280 279 280 278 277 274 275 275 274 275 276 278 278 276 277 279 280 282 280 279 278 275
290 288 289 290 291 293 292 286 285 287 285 283 286 288 289 287 285 281 281 280 279 276 277 276 276 276 276 277 277 277 278 280 281 282 282 280 278 278
286 290 289 287 288 288 287 286 286 288 288 287 287 290 290 291 287 284 283 282 280 279 278 277 276 278 278 278 279 281 280 279 280 281 281 281 281 280
286 290 289 286 286 287 285 285 286 287 289 291 291 293 294 292 291 290 286 283 282 281 280 279 279 280 280 279 281 281 280 279 279 280 281 281 281 281
289 289 285 285 286 288 289 285 285 286 288 290 292 292 293 294 291 292 287 285 286 285 284 283 282 283 283 283 283 283 283 282 281 282 283 282 282 282
291 290 289 290 290 289 291 289 285 284 285 287 290 293 293 293 293 292 290 290 290 288 288 287 286 286 286 286 286 285 285 285 284 284 284 285 285 285
290 289 287 289 288 289 290 290 288 286 285 286 289 293 292 292 293 292 291 291 292 292 291 291 290 290 289 289 287 287 286 285 285 285 285 286 287 287
291 289 286 283 287 288 289 289 287 287 286 286 288 291 292 292 293 293 292 292 292 293 292 292 291 291 291 289 288 288 288 287 287 287 287 287 287 288
290 288 288 286 285 287 289 290 289 289 286 287 290 291 292 292 293 293 293 292 293 294 294 293 292 292 291 291 290 289 290 289 289 289 289 289 289 288
292 289 290 290 289 289 292 294 294 292 291 290 291 292 293 293 294 294 294 295 296 295 295 294 294 293 292 291 291 291 291 291 290 290 291 291 290 290
291 292 293 294 293 292 292 292 293 291 291 291 291 292 293 294 293 293 294 296 297 297 296 296 296 295 294 293 292 292 293 293 293 292 292 292 292 291
290 290 291 293 294 294 293 292 292 291 291 292 292 292 293 294 294 294 295 297 298 298 299 298 297 296 296 295 295 295 294 294 294 293 294 294 293 292
292 292 292 293 293 294 294 293 293 293 293 294 294 294 294 294 294 294 295 296 297 299 299 299 298 297 296 296 296 296 296 295 295 295 295 295 294 294
290 291 292 292 293 293 293 293 293 294 295 295 294 294 296 296 294 294 294 296 298 299 299 299 299 298 298 298 298 297 297 297 296 296 296 296 296 296
290 291 291 291 292 293 293 293 294 295 295 294 294 294 295 297 297 296 296 297 298 299 300 299 299 300 299 299 299 299 299 298 298 298 298 298 298 298
290 290 291 291 291 293 293 292 292 294 294 294 294 294 295 295 296 296 297 298 299 300 300 300 300 300 300 300 300 300 300 299 299 300 300 301 301 301
288 288 289 290 290 292 293 294 293 294 294 294 294 294 294 294 295 297 298 299 299 299 300 300 301 301 302 302 301 301 301 301 301 300 300 302 303 303
288 288 289 291 291 292 293 294 295 295 295 295 295 295 295 296 297 298 299 299 299 299 299 300 301 302 303 303 302 303 302 302 302 302 302 302 303 304
290 289 289 291 291 292 294 295 295 295 295 295 295 296 296 297 298 299 300 300 300 301 301 301 301 301 303 303 303 303 303 303 302 302 302 302 304 304
291 290 291 292 292 294 295 295 296 296 296 296 296 296 297 298 298 299 301 302 302 302 302 303 303 303 304 304 304 303 303 303 302 303 303 304 305 305
290 290 290 292 293 294 295 294 295 296 297 297 297 297 297 297 298 299 300 302 302 303 304 304 304 304 304 304 304 303 302 302 303 304 304 305 306 306
290 290 290 291 293 295 295 295 295 296 297 297 297 297 298 298 298 299 300 301 302 303 305 305 305 304 304 304 304 303 302 302 303 303 305 305 306 306
290 290 290 290 292 293 294 295 295 296 297 297 297 297 298 298 298 298 299 301 302 302 304 305 305 305 305 304 303 303 303 303 303 303 304 304 305 305
Height
5886 5885 5885 5885 5884 5883 5882 5882 5882 5881 5880 5879 5878 5877 5876 5874 5873 5872 5871 5870 5869 5868 5867 5867 5865 5865 5864 5863 5861 5860 5859 5858 5856 5855 5854 5852 5851 5850
5884 5884 5883 5883 5882 5881 5880 5879 5879 5878 5878 5877 5875 5874 5873 5871 5870 5869 5868 5867 5865 5864 5863 5862 5861 5860 5859 5858 5856 5855 5853 5852 5851 5850 5848 5846 5845 5844
5883 5882 5881 5880 5879 5879 5878 5877 5876 5876 5875 5874 5872 5871 5869 5868 5866 5865 5864 5863 5861 5860 5859 5857 5856 5855 5854 5852 5851 5849 5848 5846 5845 5844 5842 5840 5839 5837
5880 5879 5879 5878 5877 5876 5875 5874 5874 5873 5872 5870 5869 5867 5866 5864 5863 5861 5860 5858 5857 5856 5854 5852 5851 5850 5848 5846 5845 5843 5842 5840 5838 5837 5835 5833 5832 5830
5878 5877 5876 5875 5874 5873 5873 5872 5870 5869 5868 5867 5865 5864 5862 5860 5859 5857 5855 5854 5853 5851 5849 5847 5846 5844 5842 5840 5839 5837 5835 5833 5832 5830 5828 5826 5824 5822
5875 5874 5873 5872 5872 5870 5869 5868 5867 5865 5864 5863 5862 5860 5858 5857 5855 5853 5851 5850 5848 5846 5844 5842 5840 5838 5836 5834 5832 5830 5828 5826 5824 5822 5820 5818 5816 5813
5872 5871 5870 5869 5868 5867 5866 5864 5863 5861 5860 5859 5857 5856 5854 5852 5850 5848 5847 5845 5843 5841 5839 5837 5835 5832 5830 5828 5826 5823 5821 5819 5817 5814 5812 5809 5807 5804
5869 5868 5866 5865 5864 5863 5861 5860 5858 5857 5855 5854 5853 5851 5849 5847 5845 5843 5841 5839 5837 5835 5833 5830 5828 5826 5823 5821 5818 5816 5813 5811 5808 5806 5803 5800 5798 5794
5865 5864 5862 5861 5860 5858 5857 5855 5854 5852 5851 5849 5848 5846 5844 5842 5840 5838 5835 5833 5831 5829 5826 5823 5821 5818 5816 5813 5810 5808 5805 5802 5800 5797 5794 5791 5787 5784
5861 5860 5858 5857 5855 5854 5853 5851 5849 5847 5846 5844 5842 5840 5838 5836 5834 5832 5829 5827 5825 5822 5819 5817 5814 5811 5808 5805 5802 5799 5796 5793 5790 5787 5784 5780 5777 5773
5857 5856 5854 5853 5851 5850 5848 5846 5844 5842 5840 5838 5836 5834 5832 5830 5828 5825 5823 5820 5818 5815 5812 5809 5806 5803 5800 5797 5794 5790 5787 5784 5780 5777 5773 5770 5766 5762
5853 5851 5849 5848 5846 5845 5843 5841 5839 5837 5835 5832 5830 5828 5826 5824 5821 5819 5817 5814 5811 5808 5805 5802 5799 5795 5792 5789 5785 5781 5778 5774 5770 5767 5763 5759 5755 5751
5848 5846 5844 5842 5841 5839 5837 5835 5833 5831 5829 5826 5824 5822 5819 5817 5814 5812 5809 5807 5804 5800 5797 5794 5790 5787 5783 5780 5776 5772 5768 5764 5760 5756 5752 5748 5744 5740
5842 5841 5839 5837 5835 5833 5831 5829 5827 5825 5822 5820 5817 5815 5812 5810 5807 5804 5801 5799 5796 5793 5789 5786 5782 5778 5774 5771 5767 5763 5758 5754 5750 5746 5741 5737 5732 5728
5836 5835 5833 5831 5829 5827 5825 5823 5820 5818 5816 5813 5811 5808 5805 5802 5799 5797 5794 5790 5787 5784 5780 5777 5773 5769 5765 5761 5757 5753 5749 5744 5740 5735 5731 5726 5721 5716
5830 5828 5826 5824 5822 5820 5818 5816 5814 5811 5808 5806 5803 5801 5798 5795 5792 5789 5785 5782 5779 5775 5771 5767 5763 5760 5755 5751 5747 5743 5739 5734 5730 5725 5720 5715 5710 5705
5823 5821 5819 5818 5816 5813 5811 5809 5806 5804 5801 5798 5795 5792 5790 5787 5784 5780 5777 5774 5770 5766 5762 5758 5754 5750 5745 5741 5737 5733 5728 5724 5719 5714 5710 5705 5700 5694
5816 5814 5812 5810 5808 5806 5804 5801 5798 5796 5793 5790 5787 5784 5781 5778 5775 5771 5768 5764 5761 5757 5753 5749 5745 5740 5736 5731 5727 5722 5718 5713 5708 5703 5698 5694 5689 5684
5809 5807 5805 5802 5800 5798 5796 5793 5791 5788 5785 5782 5779 5776 5773 5769 5766 5762 5758 5755 5751 5747 5743 5739 5735 5731 5726 5722 5717 5712 5707 5702 5698 5693 5688 5683 5678 5673
5801 5799 5797 5794 5792 5790 5788 5785 5782 5779 5776 5773 5770 5767 5764 5760 5757 5753 5749 5745 5742 5737 5733 5729 5725 5720 5716 5712 5707 5702 5697 5692 5688 5683 5678 5673 5668 5663
5793 5791 5789 5787 5784 5782 5779 5776 5773 5770 5767 5764 5761 5758 5754 5751 5748 5744 5740 5736 5732 5728 5723 5719 5715 5710 5705 5701 5697 5692 5687 5682 5677 5673 5668 5663 5658 5653
5785 5782 5780 5778 5775 5773 5770 5767 5764 5761 5758 5755 5751 5748 5744 5741 5738 5734 5730 5726 5722 5718 5714 5709 5705 5700 5695 5691 5686 5682 5677 5672 5667 5662 5657 5653 5648 5643
5776 5773 5771 5769 5766 5764 5761 5758 5755 5752 5749 5745 5742 5738 5735 5732 5728 5724 5721 5717 5713 5708 5704 5699 5695 5690 5685 5681 5676 5671 5667 5662 5658 5653 5648 5643 5639 5634